<?xml version="1.0"?>
<gpx xmlns="http://www.topografix.com/GPX/1/1" xmlns:xsi="http://www.w3.org/2001/XMLSchema-instance" version="1.1" creator="GPX RubyGem 1.0.0 -- http://dougfales.github.io/gpx/" xsi:schemaLocation="http://www.topografix.com/GPX/1/1 http://www.topografix.com/GPX/1/1/gpx.xsd">
  <metadata>
    <name/>
    <time>2026-05-08T20:30:13+00:00</time>
    <bound minlat="90.0" minlon="180.0" maxlat="-90.0" maxlon="-180.0"/>
  </metadata>
  <trk>
    <name/>
    <trkseg>
      <trkpt lat="43.005024" lon="2.551353">
        <time>1970-01-01T00:00:00+00:00</time>
        <ele>264.0</ele>
      </trkpt>
      <trkpt lat="43.00503" lon="2.551376">
        <time>1970-01-01T00:00:00+00:00</time>
        <ele>264.0</ele>
      </trkpt>
      <trkpt lat="43.005178" lon="2.551213">
        <time>1970-01-01T00:00:00+00:00</time>
        <ele>263.0</ele>
      </trkpt>
      <trkpt lat="43.005216" lon="2.551222">
        <time>1970-01-01T00:00:00+00:00</time>
        <ele>263.0</ele>
      </trkpt>
      <trkpt lat="43.005241" lon="2.551285">
        <time>1970-01-01T00:00:00+00:00</time>
        <ele>262.0</ele>
      </trkpt>
      <trkpt lat="43.005225" lon="2.551405">
        <time>1970-01-01T00:00:00+00:00</time>
        <ele>260.0</ele>
      </trkpt>
      <trkpt lat="43.005175" lon="2.55143">
        <time>1970-01-01T00:00:00+00:00</time>
        <ele>261.0</ele>
      </trkpt>
      <trkpt lat="43.005288" lon="2.551535">
        <time>1970-01-01T00:00:00+00:00</time>
        <ele>257.0</ele>
      </trkpt>
      <trkpt lat="43.005319" lon="2.551595">
        <time>1970-01-01T00:00:00+00:00</time>
        <ele>255.0</ele>
      </trkpt>
      <trkpt lat="43.00537" lon="2.551606">
        <time>1970-01-01T00:00:00+00:00</time>
        <ele>254.0</ele>
      </trkpt>
      <trkpt lat="43.005386" lon="2.551629">
        <time>1970-01-01T00:00:00+00:00</time>
        <ele>253.0</ele>
      </trkpt>
      <trkpt lat="43.005341" lon="2.551709">
        <time>1970-01-01T00:00:00+00:00</time>
        <ele>252.0</ele>
      </trkpt>
      <trkpt lat="43.005234" lon="2.55173">
        <time>1970-01-01T00:00:00+00:00</time>
        <ele>252.0</ele>
      </trkpt>
      <trkpt lat="43.005194" lon="2.55178">
        <time>1970-01-01T00:00:00+00:00</time>
        <ele>251.0</ele>
      </trkpt>
      <trkpt lat="43.005205" lon="2.551814">
        <time>1970-01-01T00:00:00+00:00</time>
        <ele>250.0</ele>
      </trkpt>
      <trkpt lat="43.00528" lon="2.551769">
        <time>1970-01-01T00:00:00+00:00</time>
        <ele>251.0</ele>
      </trkpt>
      <trkpt lat="43.005438" lon="2.551882">
        <time>1970-01-01T00:00:00+00:00</time>
        <ele>247.0</ele>
      </trkpt>
      <trkpt lat="43.00556" lon="2.551894">
        <time>1970-01-01T00:00:00+00:00</time>
        <ele>246.0</ele>
      </trkpt>
      <trkpt lat="43.005653" lon="2.551849">
        <time>1970-01-01T00:00:00+00:00</time>
        <ele>246.0</ele>
      </trkpt>
      <trkpt lat="43.005743" lon="2.55169">
        <time>1970-01-01T00:00:00+00:00</time>
        <ele>249.0</ele>
      </trkpt>
      <trkpt lat="43.005823" lon="2.551677">
        <time>1970-01-01T00:00:00+00:00</time>
        <ele>247.0</ele>
      </trkpt>
      <trkpt lat="43.005888" lon="2.551709">
        <time>1970-01-01T00:00:00+00:00</time>
        <ele>246.0</ele>
      </trkpt>
      <trkpt lat="43.005917" lon="2.551829">
        <time>1970-01-01T00:00:00+00:00</time>
        <ele>244.0</ele>
      </trkpt>
      <trkpt lat="43.005988" lon="2.551824">
        <time>1970-01-01T00:00:00+00:00</time>
        <ele>244.0</ele>
      </trkpt>
      <trkpt lat="43.00601" lon="2.55187">
        <time>1970-01-01T00:00:00+00:00</time>
        <ele>243.0</ele>
      </trkpt>
      <trkpt lat="43.006015" lon="2.551943">
        <time>1970-01-01T00:00:00+00:00</time>
        <ele>243.0</ele>
      </trkpt>
      <trkpt lat="43.005966" lon="2.552242">
        <time>1970-01-01T00:00:00+00:00</time>
        <ele>244.0</ele>
      </trkpt>
      <trkpt lat="43.005933" lon="2.552289">
        <time>1970-01-01T00:00:00+00:00</time>
        <ele>245.0</ele>
      </trkpt>
      <trkpt lat="43.005866" lon="2.552477">
        <time>1970-01-01T00:00:00+00:00</time>
        <ele>246.0</ele>
      </trkpt>
      <trkpt lat="43.005837" lon="2.552745">
        <time>1970-01-01T00:00:00+00:00</time>
        <ele>247.0</ele>
      </trkpt>
      <trkpt lat="43.00587" lon="2.552887">
        <time>1970-01-01T00:00:00+00:00</time>
        <ele>246.0</ele>
      </trkpt>
      <trkpt lat="43.005906" lon="2.552936">
        <time>1970-01-01T00:00:00+00:00</time>
        <ele>245.0</ele>
      </trkpt>
      <trkpt lat="43.00595" lon="2.552953">
        <time>1970-01-01T00:00:00+00:00</time>
        <ele>244.0</ele>
      </trkpt>
      <trkpt lat="43.005964" lon="2.552946">
        <time>1970-01-01T00:00:00+00:00</time>
        <ele>244.0</ele>
      </trkpt>
      <trkpt lat="43.005992" lon="2.552804">
        <time>1970-01-01T00:00:00+00:00</time>
        <ele>244.0</ele>
      </trkpt>
      <trkpt lat="43.006025" lon="2.552783">
        <time>1970-01-01T00:00:00+00:00</time>
        <ele>244.0</ele>
      </trkpt>
      <trkpt lat="43.006041" lon="2.552812">
        <time>1970-01-01T00:00:00+00:00</time>
        <ele>244.0</ele>
      </trkpt>
      <trkpt lat="43.006062" lon="2.552965">
        <time>1970-01-01T00:00:00+00:00</time>
        <ele>245.0</ele>
      </trkpt>
      <trkpt lat="43.006078" lon="2.553555">
        <time>1970-01-01T00:00:00+00:00</time>
        <ele>249.0</ele>
      </trkpt>
      <trkpt lat="43.006055" lon="2.55367">
        <time>1970-01-01T00:00:00+00:00</time>
        <ele>250.0</ele>
      </trkpt>
      <trkpt lat="43.005951" lon="2.553931">
        <time>1970-01-01T00:00:00+00:00</time>
        <ele>251.0</ele>
      </trkpt>
      <trkpt lat="43.005908" lon="2.554105">
        <time>1970-01-01T00:00:00+00:00</time>
        <ele>252.0</ele>
      </trkpt>
      <trkpt lat="43.005902" lon="2.55422">
        <time>1970-01-01T00:00:00+00:00</time>
        <ele>252.0</ele>
      </trkpt>
      <trkpt lat="43.005935" lon="2.554317">
        <time>1970-01-01T00:00:00+00:00</time>
        <ele>254.0</ele>
      </trkpt>
      <trkpt lat="43.005892" lon="2.554574">
        <time>1970-01-01T00:00:00+00:00</time>
        <ele>260.0</ele>
      </trkpt>
      <trkpt lat="43.005892" lon="2.554574">
        <time>1970-01-01T00:00:00+00:00</time>
        <ele>260.0</ele>
      </trkpt>
      <trkpt lat="43.005935" lon="2.554317">
        <time>1970-01-01T00:00:00+00:00</time>
        <ele>254.0</ele>
      </trkpt>
      <trkpt lat="43.005902" lon="2.55422">
        <time>1970-01-01T00:00:00+00:00</time>
        <ele>252.0</ele>
      </trkpt>
      <trkpt lat="43.005908" lon="2.554105">
        <time>1970-01-01T00:00:00+00:00</time>
        <ele>252.0</ele>
      </trkpt>
      <trkpt lat="43.005951" lon="2.553931">
        <time>1970-01-01T00:00:00+00:00</time>
        <ele>251.0</ele>
      </trkpt>
      <trkpt lat="43.006055" lon="2.55367">
        <time>1970-01-01T00:00:00+00:00</time>
        <ele>250.0</ele>
      </trkpt>
      <trkpt lat="43.006078" lon="2.553555">
        <time>1970-01-01T00:00:00+00:00</time>
        <ele>249.0</ele>
      </trkpt>
      <trkpt lat="43.006062" lon="2.552965">
        <time>1970-01-01T00:00:00+00:00</time>
        <ele>245.0</ele>
      </trkpt>
      <trkpt lat="43.006041" lon="2.552812">
        <time>1970-01-01T00:00:00+00:00</time>
        <ele>244.0</ele>
      </trkpt>
      <trkpt lat="43.006025" lon="2.552783">
        <time>1970-01-01T00:00:00+00:00</time>
        <ele>244.0</ele>
      </trkpt>
      <trkpt lat="43.005992" lon="2.552804">
        <time>1970-01-01T00:00:00+00:00</time>
        <ele>244.0</ele>
      </trkpt>
      <trkpt lat="43.005964" lon="2.552946">
        <time>1970-01-01T00:00:00+00:00</time>
        <ele>244.0</ele>
      </trkpt>
      <trkpt lat="43.00595" lon="2.552953">
        <time>1970-01-01T00:00:00+00:00</time>
        <ele>244.0</ele>
      </trkpt>
      <trkpt lat="43.005906" lon="2.552936">
        <time>1970-01-01T00:00:00+00:00</time>
        <ele>245.0</ele>
      </trkpt>
      <trkpt lat="43.00587" lon="2.552887">
        <time>1970-01-01T00:00:00+00:00</time>
        <ele>246.0</ele>
      </trkpt>
      <trkpt lat="43.005837" lon="2.552745">
        <time>1970-01-01T00:00:00+00:00</time>
        <ele>247.0</ele>
      </trkpt>
      <trkpt lat="43.005866" lon="2.552477">
        <time>1970-01-01T00:00:00+00:00</time>
        <ele>246.0</ele>
      </trkpt>
      <trkpt lat="43.005933" lon="2.552289">
        <time>1970-01-01T00:00:00+00:00</time>
        <ele>245.0</ele>
      </trkpt>
      <trkpt lat="43.005966" lon="2.552242">
        <time>1970-01-01T00:00:00+00:00</time>
        <ele>244.0</ele>
      </trkpt>
      <trkpt lat="43.006015" lon="2.551943">
        <time>1970-01-01T00:00:00+00:00</time>
        <ele>243.0</ele>
      </trkpt>
      <trkpt lat="43.00601" lon="2.55187">
        <time>1970-01-01T00:00:00+00:00</time>
        <ele>243.0</ele>
      </trkpt>
      <trkpt lat="43.005988" lon="2.551824">
        <time>1970-01-01T00:00:00+00:00</time>
        <ele>244.0</ele>
      </trkpt>
      <trkpt lat="43.005917" lon="2.551829">
        <time>1970-01-01T00:00:00+00:00</time>
        <ele>244.0</ele>
      </trkpt>
      <trkpt lat="43.005888" lon="2.551709">
        <time>1970-01-01T00:00:00+00:00</time>
        <ele>246.0</ele>
      </trkpt>
      <trkpt lat="43.005823" lon="2.551677">
        <time>1970-01-01T00:00:00+00:00</time>
        <ele>247.0</ele>
      </trkpt>
      <trkpt lat="43.005743" lon="2.55169">
        <time>1970-01-01T00:00:00+00:00</time>
        <ele>249.0</ele>
      </trkpt>
      <trkpt lat="43.005653" lon="2.551849">
        <time>1970-01-01T00:00:00+00:00</time>
        <ele>246.0</ele>
      </trkpt>
      <trkpt lat="43.00556" lon="2.551894">
        <time>1970-01-01T00:00:00+00:00</time>
        <ele>246.0</ele>
      </trkpt>
      <trkpt lat="43.005438" lon="2.551882">
        <time>1970-01-01T00:00:00+00:00</time>
        <ele>247.0</ele>
      </trkpt>
      <trkpt lat="43.00528" lon="2.551769">
        <time>1970-01-01T00:00:00+00:00</time>
        <ele>251.0</ele>
      </trkpt>
      <trkpt lat="43.005205" lon="2.551814">
        <time>1970-01-01T00:00:00+00:00</time>
        <ele>250.0</ele>
      </trkpt>
      <trkpt lat="43.005194" lon="2.55178">
        <time>1970-01-01T00:00:00+00:00</time>
        <ele>251.0</ele>
      </trkpt>
      <trkpt lat="43.005234" lon="2.55173">
        <time>1970-01-01T00:00:00+00:00</time>
        <ele>252.0</ele>
      </trkpt>
      <trkpt lat="43.005341" lon="2.551709">
        <time>1970-01-01T00:00:00+00:00</time>
        <ele>252.0</ele>
      </trkpt>
      <trkpt lat="43.005386" lon="2.551629">
        <time>1970-01-01T00:00:00+00:00</time>
        <ele>253.0</ele>
      </trkpt>
      <trkpt lat="43.00537" lon="2.551606">
        <time>1970-01-01T00:00:00+00:00</time>
        <ele>254.0</ele>
      </trkpt>
      <trkpt lat="43.005319" lon="2.551595">
        <time>1970-01-01T00:00:00+00:00</time>
        <ele>255.0</ele>
      </trkpt>
      <trkpt lat="43.005288" lon="2.551535">
        <time>1970-01-01T00:00:00+00:00</time>
        <ele>257.0</ele>
      </trkpt>
      <trkpt lat="43.005175" lon="2.55143">
        <time>1970-01-01T00:00:00+00:00</time>
        <ele>261.0</ele>
      </trkpt>
      <trkpt lat="43.005225" lon="2.551405">
        <time>1970-01-01T00:00:00+00:00</time>
        <ele>260.0</ele>
      </trkpt>
      <trkpt lat="43.005241" lon="2.551285">
        <time>1970-01-01T00:00:00+00:00</time>
        <ele>262.0</ele>
      </trkpt>
      <trkpt lat="43.005216" lon="2.551222">
        <time>1970-01-01T00:00:00+00:00</time>
        <ele>263.0</ele>
      </trkpt>
      <trkpt lat="43.005178" lon="2.551213">
        <time>1970-01-01T00:00:00+00:00</time>
        <ele>263.0</ele>
      </trkpt>
      <trkpt lat="43.00503" lon="2.551376">
        <time>1970-01-01T00:00:00+00:00</time>
        <ele>264.0</ele>
      </trkpt>
      <trkpt lat="43.005024" lon="2.551353">
        <time>1970-01-01T00:00:00+00:00</time>
        <ele>264.0</ele>
      </trkpt>
    </trkseg>
  </trk>
</gpx>
